Theta_e
325 324 319 320 318 317 319 321 324 323 323 323 324 328 327 322 318 317 319 318 316 317 320 320 318 318 317 316 317 314 312 312 314 314 314 314 314 313 314 314 315 316 315 311 311 313 313 314 316 318 321 322 322 324 326 327 327 327 327 327 326 326 326 325 325 324 324 324 324 324 325 326 328 329 330 330 330 330 330 330 329 330 332 332 332 330
326 321 319 326 323 318 318 319 319 316 320 324 325 327 324 320 317 316 317 320 316 316 321 320 318 319 317 316 316 314 313 315 315 314 313 313 313 312 313 314 315 315 314 312 312 312 313 314 314 317 320 321 322 323 324 325 326 326 326 326 326 325 325 324 324 323 323 323 323 323 323 324 325 327 328 328 329 329 329 330 330 331 331 331 331 330
325 321 322 329 323 316 315 316 318 321 327 330 327 324 321 318 317 317 319 322 320 318 324 324 320 320 317 315 316 314 314 314 313 313 314 314 313 312 313 314 315 315 316 316 315 312 312 313 314 316 319 320 322 322 322 323 324 324 324 324 324 324 324 323 323 322 322 321 321 322 322 322 324 324 325 326 327 327 327 328 329 330 330 329 330 329
319 321 324 324 318 315 316 318 320 322 326 330 327 320 320 321 319 318 320 321 319 316 321 324 321 319 317 318 320 317 314 314 313 313 313 314 314 314 313 314 316 318 319 321 320 314 311 312 314 316 318 320 320 321 321 322 322 322 322 323 323 322 322 322 321 320 320 320 320 320 321 321 322 323 323 323 324 325 325 326 326 327 328 328 328 329
320 319 318 318 320 322 319 318 323 321 316 324 336 333 325 324 322 321 322 320 317 316 320 320 317 324 328 328 332 329 322 319 317 316 317 316 313 313 314 316 319 320 320 322 325 322 313 311 314 316 317 319 320 320 320 321 321 321 321 321 321 321 321 320 320 319 319 319 319 319 319 319 319 320 320 320 320 321 322 322 322 322 324 325 326 327
320 316 315 318 323 328 323 320 326 327 316 316 330 333 326 328 328 327 328 324 318 316 318 316 314 328 338 331 330 334 331 327 326 325 329 327 315 312 316 317 319 322 322 321 322 322 315 310 313 315 316 317 319 320 320 320 320 320 321 320 320 320 320 319 318 318 318 317 317 317 317 317 316 316 316 317 317 318 319 319 318 318 319 322 322 324
318 317 320 324 328 329 325 322 321 325 321 312 317 325 329 335 333 329 325 319 318 315 314 315 314 321 328 323 321 323 320 319 320 322 329 330 320 317 321 321 321 320 321 322 322 323 317 311 312 313 315 317 318 319 319 320 320 320 320 320 319 319 319 318 317 317 316 316 316 316 316 316 315 315 315 315 315 316 316 317 317 318 320 321 321 322
318 321 322 326 334 329 322 321 318 322 323 313 318 326 332 332 331 333 327 319 322 319 319 324 322 319 323 323 319 315 314 315 316 319 322 322 321 324 327 328 325 320 321 327 332 333 320 310 312 313 314 316 317 318 318 319 319 319 319 318 318 318 317 317 316 316 315 315 315 315 315 315 315 315 314 315 314 314 315 315 317 319 321 321 321 322
318 324 323 326 333 328 323 324 321 326 327 319 320 327 330 330 333 339 335 329 325 317 321 329 320 317 327 331 323 315 316 320 321 322 320 318 322 326 328 330 329 325 326 333 341 338 319 309 313 315 315 316 316 317 317 317 318 317 317 317 316 316 316 316 315 315 314 314 314 314 314 314 314 314 313 313 313 313 314 315 317 319 320 320 319 320
317 320 322 325 327 324 324 323 322 329 329 321 321 326 328 331 334 335 332 329 324 316 323 330 319 315 323 330 324 314 318 325 322 319 317 318 323 325 327 331 330 330 334 339 338 325 312 311 314 314 315 316 315 316 316 316 316 316 316 315 315 315 315 315 314 314 314 313 313 313 313 313 313 313 312 312 312 312 313 313 315 317 319 319 318 318
318 315 316 319 320 323 323 320 321 325 321 320 326 331 329 331 334 336 335 328 318 318 328 330 320 314 317 328 327 317 321 324 318 319 321 324 330 330 331 332 330 334 337 339 337 320 308 311 313 313 315 314 314 315 315 315 315 315 315 314 314 314 314 314 313 313 313 313 313 313 313 312 312 311 311 311 311 311 312 312 314 315 317 318 317 317
319 316 317 317 317 321 324 321 320 323 323 323 331 332 325 328 332 334 334 327 317 322 330 329 322 314 314 326 327 320 323 321 318 323 326 330 335 334 333 330 328 331 330 332 340 329 314 313 313 312 314 313 314 314 314 314 314 314 314 314 313 313 313 313 313 313 313 313 313 312 312 312 311 311 310 311 311 310 311 311 312 314 315 316 316 316
320 321 319 317 316 319 327 327 321 324 330 326 326 326 318 321 325 325 329 327 322 322 320 322 323 317 316 322 322 321 322 321 322 322 325 332 334 330 332 333 331 329 330 332 337 336 330 320 312 312 314 313 314 314 314 314 314 314 314 313 313 313 313 313 312 313 312 312 312 312 312 311 311 311 310 310 311 310 310 311 312 312 313 315 315 314
322 326 320 316 318 318 322 325 321 323 327 322 320 322 319 321 320 322 327 322 321 323 318 318 321 320 322 321 321 324 318 318 323 320 323 329 327 328 333 334 333 329 331 334 334 341 339 318 308 312 314 313 314 314 314 314 314 314 314 313 313 313 313 313 312 312 312 312 312 312 311 311 311 311 311 311 310 310 310 310 312 312 313 314 314 314
320 325 323 319 321 320 318 321 325 325 323 321 320 318 318 324 324 323 326 321 320 324 319 316 320 327 327 318 319 322 319 322 326 322 324 323 323 331 331 327 330 333 333 332 333 339 329 309 307 313 313 313 315 314 314 314 314 314 313 313 313 313 312 312 312 312 312 312 312 312 311 311 311 311 311 311 310 310 310 310 311 312 313 313 314 315
317 320 323 320 318 320 320 320 324 324 320 320 319 315 316 322 325 321 319 322 323 323 321 319 323 330 324 317 317 317 318 327 328 324 324 322 322 330 332 328 329 335 336 331 333 341 325 306 307 312 311 313 314 313 314 313 313 313 313 313 313 313 313 312 312 312 312 312 311 311 311 310 311 311 310 311 310 310 310 310 310 311 313 313 312 314
317 318 320 317 317 319 319 319 320 321 320 319 318 322 322 319 325 323 314 316 318 317 320 319 322 324 317 315 320 316 315 323 325 323 322 322 323 322 329 334 333 335 337 332 333 339 325 307 307 311 312 313 312 312 314 313 313 313 312 313 313 313 313 312 312 312 311 312 311 311 311 310 310 310 310 310 310 310 310 310 310 310 311 312 312 312
322 322 318 317 318 316 314 317 320 319 320 321 322 325 320 314 322 326 319 320 320 318 321 318 317 320 315 317 324 319 313 318 322 323 322 324 324 318 322 333 338 336 335 332 328 328 316 304 307 312 312 313 313 312 313 312 313 313 312 313 312 312 313 312 312 312 311 311 311 311 311 310 310 310 310 310 309 310 310 309 310 310 311 311 311 311
321 321 317 316 319 317 315 318 321 318 316 321 323 321 320 320 323 322 319 322 321 318 323 322 316 315 315 318 321 316 315 320 321 321 322 322 322 319 319 325 334 332 330 332 332 336 324 306 308 313 313 313 313 312 313 312 312 312 312 312 312 312 312 312 312 312 311 311 311 310 310 310 310 309 309 309 309 309 310 309 309 310 311 311 311 311
318 316 316 315 316 317 318 319 322 322 317 318 319 316 320 325 325 323 319 319 320 318 321 323 319 317 319 320 319 315 317 320 317 318 320 318 318 319 315 319 328 329 330 334 336 346 334 310 309 314 313 313 313 312 312 312 312 312 311 311 312 312 312 311 312 311 311 311 310 310 310 309 309 309 308 308 308 309 309 309 309 309 311 311 311 310
316 312 314 316 314 317 320 320 320 322 320 320 320 319 320 320 320 323 321 319 322 324 323 321 317 323 327 321 318 318 318 318 317 318 320 319 318 320 319 324 327 326 334 338 339 350 332 309 310 315 312 312 312 311 311 311 311 312 311 311 311 311 312 311 311 311 310 310 310 310 309 309 308 308 308 307 308 308 308 308 309 309 310 310 310 310
316 313 318 321 319 320 322 319 317 319 320 319 319 320 320 320 320 320 319 318 319 321 324 321 315 322 329 322 319 322 322 322 320 318 322 325 325 328 331 330 324 324 336 339 341 348 325 307 312 315 312 313 312 311 311 310 311 311 311 311 311 311 311 311 311 311 310 310 310 309 309 309 308 308 307 307 307 307 307 308 308 309 309 309 310 310
319 321 325 324 322 322 319 315 315 318 318 317 318 320 320 319 320 320 323 323 320 317 320 321 319 318 320 321 324 326 325 325 325 324 326 330 333 338 339 334 327 325 331 333 336 331 311 306 313 314 312 312 311 311 311 310 311 312 311 311 310 311 311 311 311 310 310 310 309 309 309 308 308 307 307 307 307 307 307 307 307 307 308 309 309 310
319 322 322 320 321 324 322 318 317 317 317 317 319 321 321 321 322 327 331 327 323 322 319 320 320 317 319 325 329 328 326 323 322 324 327 328 330 338 341 337 332 330 330 333 335 322 306 305 311 311 310 311 311 311 311 310 311 311 311 311 310 311 311 310 310 310 310 310 309 309 308 308 307 307 306 306 306 306 306 306 306 306 307 307 308 309
316 319 320 319 320 323 325 323 320 317 317 320 324 323 322 324 324 324 324 319 319 326 324 321 319 318 323 328 327 330 333 325 320 322 326 325 324 331 337 336 336 339 339 339 343 335 322 314 308 306 308 308 308 309 309 309 310 310 310 310 310 310 310 309 309 309 309 309 309 309 308 307 307 306 306 306 305 306 306 306 306 306 306 307 307 308
317 319 318 318 317 317 320 320 320 320 319 321 327 325 320 322 322 319 320 319 319 323 322 319 316 316 321 324 322 327 331 325 323 326 324 322 323 328 332 333 334 337 338 339 342 340 330 318 306 303 305 306 305 307 307 308 309 309 309 310 309 309 309 309 309 308 308 308 308 308 307 307 307 306 306 305 305 305 305 305 306 305 306 306 307 307
324 322 315 314 315 314 314 316 320 324 322 320 324 323 318 319 319 318 320 321 319 320 320 318 316 316 317 318 318 323 327 327 330 331 325 321 323 325 327 328 327 328 330 331 330 327 324 318 309 303 305 306 306 307 308 308 308 308 308 309 309 309 308 308 308 308 308 308 307 308 307 307 307 306 306 305 305 305 305 305 305 305 305 305 306 306
326 321 315 315 315 313 313 316 321 322 320 320 320 320 319 318 318 319 320 319 318 319 319 317 316 316 315 315 315 317 322 328 332 333 327 322 323 327 329 329 327 325 324 321 320 319 318 317 312 305 304 307 308 308 309 308 308 308 308 308 309 308 307 307 307 307 307 307 307 307 307 307 306 306 305 305 305 304 304 304 304 305 305 305 304 304
323 319 317 317 315 315 314 317 321 320 318 319 318 319 320 318 317 318 318 318 318 318 318 316 317 318 315 313 314 314 315 319 323 326 322 318 322 329 329 325 324 324 322 319 318 316 313 314 312 305 303 306 307 308 308 308 308 308 308 308 308 307 307 306 305 306 306 306 306 307 307 307 306 305 305 305 304 304 304 304 304 304 304 304 304 303
320 322 323 318 314 316 316 317 321 319 317 319 318 318 319 318 317 317 316 317 316 317 317 316 317 317 314 313 315 314 314 314 317 321 319 319 323 325 323 322 323 323 320 317 315 313 312 313 308 302 303 305 306 306 307 306 307 307 308 308 308 307 307 305 305 305 305 306 306 307 307 306 305 304 304 304 304 304 304 303 303 303 303 303 303 302
316 323 324 318 316 317 315 316 318 318 318 319 318 317 317 317 317 316 316 317 316 316 316 316 317 315 314 315 317 316 317 316 316 319 322 323 322 321 320 320 320 320 317 315 314 313 313 312 305 300 302 304 304 304 304 304 305 306 307 307 307 307 306 305 304 304 305 305 306 306 306 305 305 304 303 304 304 304 303 303 302 302 302 302 302 302
316 321 321 318 318 318 316 317 317 316 317 317 318 318 316 316 317 316 317 317 316 317 317 317 317 315 315 318 317 317 320 320 320 323 324 322 319 318 318 317 316 315 314 313 313 312 312 311 306 301 300 302 302 302 302 302 303 304 305 306 306 306 305 305 304 304 304 305 305 305 305 305 304 303 303 303 303 303 303 302 301 301 301 301 301 301
318 319 321 320 319 317 318 320 318 317 317 317 317 317 315 315 315 315 316 316 316 317 317 317 317 314 316 320 318 318 322 323 323 322 321 320 318 317 317 315 313 312 311 310 310 310 309 307 303 300 300 301 301 300 301 301 301 302 304 304 305 305 305 304 304 304 304 304 304 304 305 304 303 303 303 303 303 302 302 301 301 301 300 300 300 300
319 317 319 320 318 317 320 320 318 317 318 317 316 317 316 315 315 315 315 315 315 316 315 316 316 314 316 320 319 320 322 322 319 314 312 314 316 314 313 311 310 310 309 308 308 307 303 300 300 299 300 300 300 300 301 301 301 303 304 304 305 305 304 304 304 304 304 304 304 304 304 303 303 303 303 302 302 301 300 300 300 300 300 299 299 298
319 317 318 320 318 319 320 319 318 318 318 317 321 322 317 314 315 315 315 314 314 315 315 316 316 315 317 319 318 320 319 314 311 309 309 310 311 311 310 309 308 308 308 307 307 304 299 298 298 298 298 299 299 299 300 300 300 303 304 304 304 304 304 303 303 303 303 303 304 304 303 303 303 302 302 302 301 300 300 300 299 299 299 298 298 297
318 317 318 320 322 322 320 319 318 320 320 320 324 323 317 315 316 316 317 316 314 314 315 316 315 314 315 317 319 319 314 309 307 307 307 306 307 308 308 306 305 306 305 303 302 300 298 297 297 297 297 297 297 296 297 297 297 299 302 302 302 302 302 302 302 302 302 302 303 303 303 302 302 302 302 301 300 300 299 299 299 298 298 297 297 296
317 317 318 320 320 319 319 318 317 320 321 320 321 321 317 317 318 318 318 318 316 314 314 314 315 314 314 318 321 316 310 310 311 308 305 304 305 305 304 303 302 302 300 299 298 297 296 297 296 296 296 296 296 296 295 296 296 298 299 300 299 299 299 299 299 300 300 300 301 301 301 301 301 301 301 300 300 299 299 298 298 298 298 297 296 296
317 317 318 319 320 318 318 319 319 321 320 317 318 321 319 318 319 318 317 319 319 317 314 314 315 315 316 320 319 313 310 315 317 311 305 304 303 303 302 300 298 298 297 297 297 297 296 296 296 296 296 296 295 295 295 295 296 297 297 297 296 296 297 297 297 297 297 298 298 298 298 299 299 299 300 300 299 299 299 298 298 298 297 296 296 296
316 316 316 317 319 320 319 319 319 320 320 319 322 324 320 318 319 317 317 319 320 317 315 315 315 317 320 320 315 311 314 319 318 311 307 305 303 303 303 300 297 297 297 297 296 296 295 296 296 297 296 296 296 295 295 295 296 295 295 295 294 294 295 295 295 295 295 295 295 296 296 296 297 298 298 298 299 299 299 298 298 298 297 296 296 295
315 316 316 316 318 319 319 320 320 319 320 321 324 323 319 315 316 318 319 320 318 313 311 314 315 316 317 316 313 313 317 319 316 309 305 303 300 299 299 299 297 297 297 297 296 296 295 295 296 296 296 295 295 295 294 295 295 295 294 294 294 294 294 293 294 294 294 294 295 295 295 295 295 296 297 297 298 298 298 298 298 297 296 295 295 295
315 315 316 317 318 318 319 320 319 319 322 324 323 322 318 315 315 320 321 318 314 309 307 310 313 312 311 313 314 314 312 309 309 306 303 303 301 298 297 297 297 296 296 296 295 295 295 295 295 296 296 295 295 295 294 294 294 293 293 293 293 293 293 293 293 293 293 293 294 294 295 295 295 295 295 296 297 297 297 297 297 296 296 295 294 294
316 316 316 317 318 317 318 319 319 320 323 323 318 315 315 317 319 319 314 309 307 307 307 308 309 308 308 309 311 309 305 303 304 304 302 302 302 299 296 295 296 296 296 295 294 294 294 294 294 296 297 296 295 294 293 292 293 292 292 292 293 293 292 292 293 293 293 292 293 293 294 294 295 295 295 295 295 296 296 296 296 296 295 294 294 293
316 317 316 316 317 317 317 318 319 320 319 316 315 314 316 319 319 313 308 304 305 306 306 306 307 306 305 305 305 304 303 303 302 301 301 301 300 298 295 294 294 294 294 294 293 293 293 292 293 295 297 297 295 294 292 291 291 291 291 292 292 292 292 292 292 292 292 292 292 292 293 293 294 294 294 294 295 295 295 295 295 295 294 293 293 292
316 317 317 316 316 317 318 318 318 317 315 313 316 319 318 315 310 307 306 306 305 305 305 305 305 305 304 303 303 302 302 301 300 299 300 299 298 296 294 293 293 293 293 292 292 292 292 292 291 293 296 296 295 294 292 291 290 290 291 291 291 291 291 292 292 291 291 291 291 291 292 292 293 293 293 294 294 294 294 294 294 294 293 293 292 291
315 315 317 318 316 314 315 316 313 311 309 308 311 312 310 306 304 305 307 307 305 306 306 305 304 303 303 301 301 300 300 299 298 298 297 297 296 295 293 292 292 291 291 290 291 291 290 290 290 291 292 293 292 291 291 290 289 289 290 291 290 290 291 291 291 291 291 291 291 291 291 291 292 292 293 293 293 293 293 294 293 293 292 292 291 290
313 311 313 317 315 311 311 311 308 307 306 306 306 306 304 304 304 304 306 307 306 306 305 304 303 302 301 301 300 299 298 297 296 295 295 294 293 292 291 290 290 290 289 289 289 289 289 289 289 289 289 290 289 288 288 288 288 288 288 289 289 289 290 290 290 290 290 290 291 291 291 291 291 291 292 292 292 293 293 293 293 292 292 291 290 290
312 311 313 316 315 314 314 310 306 306 305 304 305 305 304 304 303 303 304 304 303 302 302 302 301 299 299 299 299 297 295 294 294 293 292 291 291 289 289 288 288 287 288 287 287 288 288 288 287 287 287 287 287 287 287 287 287 287 287 287 288 288 288 289 289 289 289 290 290 290 290 291 291 291 291 292 292 292 292 292 292 291 291 291 290 289
312 311 313 314 313 312 311 307 304 304 304 303 304 305 303 302 300 299 299 298 298 298 297 297 297 297 297 297 296 294 292 290 290 290 290 289 288 287 286 285 285 285 285 285 285 286 285 285 285 285 285 285 285 285 285 285 286 286 286 286 286 286 287 288 288 289 289 289 289 290 290 290 290 290 291 291 291 291 291 291 291 291 291 291 291 290
310 310 312 313 310 307 306 304 304 305 305 304 302 301 300 298 297 296 295 295 296 296 294 292 290 290 290 290 290 291 289 287 286 287 288 287 285 284 283 282 282 282 283 283 283 283 283 282 283 283 283 283 284 284 284 284 285 285 285 285 285 285 285 286 287 288 289 289 289 289 290 290 290 290 290 290 290 290 290 291 291 291 291 292 292 291
308 311 311 310 309 309 307 305 304 307 308 305 301 299 297 295 294 294 293 293 294 293 292 290 287 284 283 283 284 285 286 284 283 284 285 284 282 281 280 280 280 280 281 281 281 280 280 280 281 281 281 282 282 283 283 283 283 283 283 283 283 283 284 284 285 286 287 288 288 288 289 289 290 290 290 290 289 289 289 290 290 289 289 290 291 291
310 311 310 310 311 311 308 305 305 307 308 303 297 295 293 291 292 292 291 290 290 290 290 289 287 284 281 279 279 280 281 281 282 282 282 281 280 279 278 277 278 278 279 278 278 278 277 278 279 279 280 281 281 281 281 281 281 281 282 281 281 281 281 282 283 284 285 286 287 287 288 288 288 289 289 289 289 289 288 288 289 289 289 288 288 289
Wind_Speed
4 4 3 5 7 6 7 7 6 5 6 8 6 5 4 4 2 4 3 5 1 3 5 6 6 9 10 12 12 11 8 6 9 10 10 11 11 11 9 9 9 10 11 12 14 16 18 22 25 26 26 26 27 28 30 31 33 34 34 34 35 35 34 35 35 35 35 34 32 31 31 32 33 34 34 33 33 32 32 32 31 31 33 36 39 37
5 5 6 7 9 7 6 6 6 6 5 6 6 5 2 3 2 3 2 4 3 1 4 2 3 10 10 11 12 10 9 10 13 12 13 14 13 11 9 9 9 8 8 7 9 13 16 20 21 23 24 26 28 29 31 32 33 34 34 35 35 35 36 36 37 37 36 36 35 33 33 34 34 34 34 34 34 33 32 32 32 32 32 33 33 33
4 3 9 8 6 5 5 5 7 6 5 5 4 5 3 2 1 3 3 5 4 1 3 4 4 11 11 11 12 12 11 13 12 10 11 12 12 13 10 9 8 7 8 7 8 10 14 16 18 21 24 27 29 30 31 32 33 34 34 35 36 36 37 37 37 37 36 36 34 33 32 32 33 33 34 34 34 33 33 33 33 33 32 31 32 33
2 5 8 5 5 8 6 4 8 7 4 4 4 4 2 2 1 1 4 4 3 1 2 4 5 10 9 7 10 12 10 11 10 8 10 10 12 15 10 5 7 8 9 9 8 8 9 12 16 20 24 26 27 28 30 32 33 34 35 36 37 37 37 37 37 36 35 33 31 29 27 27 29 29 31 31 31 33 34 35 35 35 34 32 31 33
4 6 2 5 5 7 7 4 6 7 2 1 3 5 3 3 4 3 2 2 3 4 3 4 5 7 5 5 8 7 4 7 7 6 10 11 11 12 8 4 7 8 8 8 9 7 7 12 17 21 23 24 26 29 31 32 33 34 35 36 36 37 37 36 35 34 33 31 29 27 23 22 23 25 26 28 30 31 33 34 35 36 37 35 31 32
4 5 3 7 5 6 7 4 4 7 2 2 2 5 7 7 6 2 2 4 4 4 3 4 4 6 5 5 7 6 5 6 6 6 10 11 7 6 7 7 7 7 7 7 7 6 7 12 15 17 20 23 27 29 30 31 32 32 33 34 34 35 35 35 34 33 32 31 30 28 25 23 23 22 24 28 29 29 30 30 30 31 35 36 34 32
2 2 4 6 5 6 6 3 3 6 5 1 4 5 7 7 7 4 3 3 1 3 3 4 2 5 7 5 9 8 8 10 8 8 11 12 7 4 6 7 6 6 6 5 5 5 7 11 13 16 21 25 27 28 28 28 30 31 31 32 33 33 34 33 33 32 32 32 31 30 30 28 27 25 26 28 27 27 29 28 27 28 31 33 34 34
2 3 5 6 6 6 5 2 4 6 7 3 3 6 7 7 7 5 6 3 1 3 4 4 4 3 6 6 8 7 8 11 11 11 13 11 7 6 6 7 6 5 5 5 6 6 7 11 15 18 21 24 26 26 26 27 29 30 30 30 30 31 31 31 31 31 31 31 31 31 31 31 30 29 28 28 27 27 27 28 29 29 31 32 34 35
2 4 4 6 6 3 4 4 5 7 6 4 4 7 6 7 7 5 6 3 2 2 5 4 2 2 6 7 5 3 3 9 11 12 13 9 7 7 7 8 7 5 5 6 6 6 8 12 16 18 19 21 23 23 24 26 27 28 28 28 27 28 29 29 29 29 29 30 31 31 31 31 30 29 26 25 26 27 26 28 30 31 31 32 34 36
1 4 6 7 5 4 4 3 4 5 4 3 5 7 5 6 6 5 5 3 3 2 5 5 4 2 5 6 5 3 1 7 10 9 9 7 7 7 7 7 6 4 5 6 4 5 7 11 14 15 15 17 19 21 22 23 24 25 25 26 26 27 27 28 28 28 29 30 30 31 32 31 29 26 25 24 24 26 27 28 31 32 32 32 34 36
2 1 2 4 3 5 4 2 1 3 5 6 6 7 7 6 5 4 3 4 3 3 7 7 5 1 4 6 4 3 4 6 6 7 8 7 7 6 4 4 3 2 4 5 3 2 5 8 9 11 14 15 15 17 19 20 21 22 23 24 25 26 26 27 27 28 29 30 31 32 31 31 29 27 26 25 25 26 27 29 31 34 34 33 35 36
4 3 0 1 1 4 6 5 4 3 4 6 5 5 4 4 4 4 4 4 1 5 6 5 1 1 3 6 5 6 7 6 6 6 7 6 7 7 2 1 2 3 2 3 4 1 2 4 7 10 13 13 13 15 17 19 20 21 22 24 25 26 26 27 27 28 29 30 31 32 32 32 31 29 28 28 27 27 28 30 31 33 35 35 35 36
2 1 2 3 1 4 6 5 4 6 5 5 5 6 4 2 3 2 3 0 3 6 4 3 1 2 5 7 7 9 10 8 7 8 7 6 5 6 2 4 3 3 2 2 3 2 3 5 7 11 12 12 13 15 16 17 19 20 22 23 25 26 26 27 27 28 29 30 32 32 33 33 32 31 30 29 29 29 29 30 31 33 35 36 36 37
1 4 3 1 2 2 6 6 3 1 1 4 5 6 5 3 2 3 3 2 4 4 3 3 1 3 4 5 8 11 11 8 6 7 8 7 6 5 3 5 4 4 4 4 3 3 4 6 9 12 12 12 14 15 15 16 18 20 21 23 25 26 26 26 27 28 30 31 32 32 33 33 33 32 31 30 29 29 29 30 32 34 35 37 38 39
4 4 3 4 2 3 6 5 6 6 4 4 4 5 6 5 5 4 4 3 4 3 3 3 1 4 3 3 7 9 9 8 6 7 6 6 6 3 1 3 4 5 5 5 5 5 6 9 11 12 13 14 15 14 15 16 18 19 21 23 25 25 26 27 28 29 30 32 32 32 33 33 33 33 32 31 30 29 30 30 32 34 35 37 39 40
4 5 5 2 1 6 7 3 4 7 2 2 3 5 3 5 5 2 3 5 4 1 2 2 3 5 4 6 8 6 7 8 7 6 5 8 6 1 2 3 5 6 6 5 5 6 8 12 13 14 15 16 15 15 15 16 17 19 21 23 24 25 26 27 28 30 31 32 32 32 33 33 33 33 32 31 30 30 30 31 32 33 35 36 38 39
3 4 5 3 2 3 5 3 3 3 3 2 3 3 5 4 7 4 1 0 3 1 3 2 4 5 3 7 9 5 5 7 8 7 7 8 5 4 4 5 5 7 6 6 6 6 8 11 14 16 18 17 16 16 15 14 16 18 20 22 24 25 26 27 28 30 30 31 32 32 33 33 34 34 34 32 31 31 30 31 32 33 34 36 37 38
5 1 4 1 1 2 1 3 2 2 4 5 3 6 3 2 4 4 2 2 3 3 5 1 5 6 2 5 7 5 1 6 8 7 8 9 6 4 5 6 7 8 6 6 7 7 9 11 13 17 18 17 16 16 14 12 13 16 18 21 23 25 27 28 28 29 30 31 32 32 33 33 34 34 34 33 32 31 30 32 33 34 35 36 37 38
5 3 4 1 2 4 4 2 1 3 3 5 4 4 4 2 1 2 3 2 1 3 4 4 5 5 4 5 5 2 4 7 9 8 8 10 9 8 5 4 7 8 6 6 7 7 8 10 14 16 15 14 13 14 14 11 11 14 17 20 22 25 26 26 27 28 29 30 31 32 32 33 33 34 34 33 32 31 31 32 33 34 34 34 35 37
4 4 3 2 1 2 4 1 4 1 2 3 1 2 3 2 4 3 3 3 4 3 3 4 5 4 6 6 6 8 9 8 8 8 8 10 10 9 6 4 6 8 7 7 7 7 7 9 13 13 11 11 11 11 12 12 12 13 16 19 22 25 26 27 28 28 29 30 31 32 32 32 33 33 33 33 33 33 33 33 34 34 34 34 36 37
2 3 4 2 3 1 2 3 7 8 5 3 3 4 3 1 2 2 1 3 4 4 3 2 4 6 6 4 8 10 9 8 9 8 8 9 8 8 7 6 6 7 7 7 7 6 6 8 9 8 8 10 11 11 11 13 13 11 15 19 22 24 26 27 29 29 29 30 30 31 32 32 33 33 33 34 34 34 34 33 35 35 35 36 38 39
3 3 4 2 1 4 5 4 5 9 8 7 6 8 7 5 4 3 3 1 2 3 4 3 5 8 5 4 6 7 6 7 7 7 6 7 7 7 7 6 5 6 7 6 6 5 5 7 5 5 8 11 13 13 12 14 14 12 15 19 21 23 26 27 28 28 29 29 30 31 32 32 33 32 33 34 34 35 34 33 34 36 36 37 38 38
4 4 5 3 4 5 6 5 3 6 4 3 3 5 6 5 5 6 5 4 1 2 3 4 2 7 4 4 5 5 6 6 5 6 5 6 6 5 6 6 5 6 6 5 5 4 5 6 5 7 12 13 14 15 15 16 15 15 16 18 20 23 26 27 27 27 28 28 30 31 31 32 32 32 33 34 35 35 35 34 34 35 36 38 37 37
3 4 4 0 3 3 5 5 2 0 1 2 3 2 4 4 4 6 5 4 3 4 3 3 3 6 4 3 4 4 4 3 3 5 5 2 5 4 5 5 3 3 4 5 4 4 6 7 7 10 14 14 15 17 18 18 17 17 18 20 21 24 26 26 26 26 27 28 30 31 31 32 32 33 34 35 36 36 35 34 34 35 36 37 36 36
4 4 4 3 1 3 4 4 3 2 2 3 3 3 5 6 6 4 2 3 2 6 7 5 6 6 3 5 3 3 4 1 3 5 3 2 3 5 5 5 5 5 5 6 5 6 6 6 8 11 14 15 17 18 18 18 18 19 20 21 23 25 26 26 25 25 26 28 30 31 32 33 33 34 35 35 36 36 36 35 35 36 36 37 37 38
6 5 5 6 7 6 6 6 5 4 3 2 4 6 8 9 10 6 3 3 6 6 8 8 9 5 2 6 5 5 5 2 5 5 2 1 2 4 4 3 4 4 4 6 6 6 6 6 8 12 15 16 16 17 17 18 19 21 22 23 24 26 27 26 25 25 26 28 30 31 33 34 34 35 35 35 36 36 35 35 36 36 37 38 39 40
3 3 7 10 12 12 12 9 5 9 7 6 8 10 10 11 12 9 4 6 8 3 4 10 12 9 9 7 6 6 4 4 6 4 3 4 4 5 5 4 4 4 4 5 5 6 6 7 8 12 14 14 15 16 17 17 19 20 21 23 24 25 26 26 25 25 27 28 30 32 34 35 35 35 35 35 35 35 35 36 36 37 38 38 39 41
4 4 9 12 14 14 11 7 8 12 13 14 13 11 11 12 13 12 10 12 9 4 5 13 9 9 16 12 10 12 8 6 8 6 4 5 5 5 5 5 6 6 6 6 6 7 8 8 8 11 14 16 17 17 17 16 17 18 19 21 23 23 24 24 23 25 26 27 30 33 35 35 35 34 34 34 34 34 35 36 36 37 38 38 40 42
5 6 8 9 13 15 8 5 9 12 12 13 14 14 14 15 15 16 18 18 11 7 12 16 10 12 18 14 12 14 10 8 9 7 5 5 5 6 6 7 8 8 7 8 8 8 7 7 7 9 14 17 17 18 19 19 19 19 19 21 21 22 22 21 22 23 25 27 30 33 34 34 34 33 32 33 34 34 35 35 36 36 37 38 41 42
4 5 6 8 11 14 9 7 10 12 10 9 12 15 16 17 19 21 21 21 15 12 15 16 13 15 16 11 11 11 9 9 6 4 4 5 7 6 5 6 6 6 6 7 7 7 6 6 7 9 13 16 18 20 20 21 21 20 20 21 21 22 21 19 20 22 23 27 30 32 33 32 32 31 31 32 34 35 36 36 36 36 37 39 40 41
3 4 4 6 5 10 10 8 9 10 10 10 11 13 15 17 19 20 18 15 12 11 15 14 14 16 10 6 8 7 6 7 5 4 6 7 5 2 3 3 4 5 6 6 6 6 6 6 7 10 12 15 17 18 19 20 21 20 20 21 21 22 20 18 19 21 23 27 29 30 30 31 31 30 31 32 34 35 36 36 36 36 38 39 40 41
5 3 1 5 4 8 9 8 9 7 6 7 10 13 16 15 15 14 13 11 11 12 14 12 12 14 7 6 7 5 7 8 7 7 8 4 1 4 5 2 3 5 5 5 6 6 6 7 7 9 12 15 16 18 18 19 20 20 20 21 21 21 20 18 19 20 23 25 27 28 29 30 30 30 31 33 34 35 35 35 36 37 38 40 40 41
7 5 2 5 6 8 7 6 9 7 3 7 12 16 16 14 11 9 9 13 15 14 12 11 13 14 8 6 7 5 8 8 6 5 4 1 5 6 6 5 4 4 4 4 5 6 6 7 9 11 13 15 17 19 19 19 21 22 22 21 21 21 20 20 19 20 22 24 25 26 28 28 29 30 32 33 34 34 34 34 36 38 39 40 40 40
7 8 6 5 6 9 6 7 9 6 8 10 10 12 16 16 14 12 13 16 16 12 10 10 13 13 7 8 9 8 7 6 4 2 1 4 7 6 6 5 3 2 3 3 4 5 6 8 12 13 14 15 18 20 20 20 21 23 22 22 22 21 21 21 21 22 23 24 25 26 26 27 28 30 32 33 33 33 33 34 37 38 39 40 39 38
9 9 5 4 5 5 4 8 6 10 12 9 4 8 14 17 18 18 17 17 15 14 13 13 16 16 9 8 8 6 7 5 5 5 4 4 5 5 6 4 2 2 3 4 4 5 7 9 13 15 16 17 19 19 20 21 23 22 22 22 22 21 21 22 23 24 24 25 27 27 27 27 28 30 31 32 32 32 34 36 37 38 38 38 38 39
10 9 5 3 3 2 4 6 10 9 4 3 3 4 6 7 9 11 13 14 14 15 15 17 21 20 11 7 5 6 10 8 6 5 3 3 2 4 6 4 1 1 3 5 5 6 9 11 13 16 17 18 18 18 20 22 23 23 23 23 22 21 21 22 24 25 25 27 28 28 27 28 29 30 31 31 31 32 34 36 36 37 37 37 37 38
7 7 5 5 5 5 6 9 7 4 5 6 8 5 5 6 8 9 10 12 12 14 16 18 21 19 11 6 6 7 9 8 6 2 1 1 1 1 2 2 1 1 3 4 5 7 10 12 13 14 16 18 18 19 21 23 24 24 24 24 23 22 22 21 22 24 25 26 27 28 28 29 29 30 31 31 31 33 35 35 36 36 36 35 36 37
4 4 5 7 6 6 8 9 6 5 10 13 8 4 6 9 10 10 9 9 8 12 16 16 16 15 9 6 7 8 8 6 3 4 4 2 1 1 2 2 1 2 3 5 8 10 13 15 15 14 15 18 20 21 22 24 24 25 24 24 25 24 23 22 22 23 24 26 27 27 28 29 29 30 31 31 32 34 34 34 35 36 35 35 36 38
1 2 2 5 5 4 7 9 8 8 11 11 7 5 7 10 10 9 6 10 7 8 9 9 11 11 7 7 8 10 8 5 5 5 4 3 3 2 0 2 4 5 6 8 9 11 13 15 15 15 17 19 21 23 24 25 26 25 25 25 26 25 24 25 26 26 27 28 29 29 29 28 28 29 30 31 32 33 34 34 35 34 34 34 36 37
2 2 2 5 6 6 8 8 6 6 6 6 6 5 5 7 12 10 7 10 5 5 6 8 9 7 6 7 8 9 7 6 5 5 5 4 3 3 3 1 4 6 8 10 10 11 13 15 16 17 18 19 21 23 24 25 26 26 26 27 27 26 26 27 29 29 29 29 29 29 29 28 28 28 29 30 32 32 33 33 33 33 32 33 34 35
5 4 4 7 9 10 10 9 5 4 5 6 6 5 4 8 9 9 10 6 5 7 5 7 8 6 6 6 6 5 4 3 5 5 4 4 3 1 1 4 5 6 7 8 9 12 15 15 16 17 18 19 22 24 24 25 26 25 25 26 25 25 27 28 29 29 29 29 29 29 29 27 27 28 28 29 30 31 32 32 31 32 32 33 33 34
6 4 4 7 9 9 9 9 6 5 5 5 4 3 5 6 5 8 5 1 5 8 6 6 7 6 5 5 5 5 5 4 6 6 4 4 3 1 4 7 8 8 8 8 9 12 14 16 17 19 20 22 23 24 24 24 24 24 24 23 24 26 28 29 29 29 28 28 29 29 28 27 26 26 27 27 28 29 30 30 30 31 31 31 31 32
8 6 4 5 6 5 5 7 7 6 4 8 8 3 4 5 6 5 4 3 3 7 6 5 5 5 5 6 6 6 7 6 5 5 3 2 2 1 3 5 6 7 8 9 11 14 16 17 19 21 21 22 23 23 23 22 22 22 22 23 26 29 30 29 29 29 28 27 27 27 27 27 26 25 25 25 25 27 29 29 28 29 29 29 30 30
5 6 5 5 6 5 6 6 5 3 3 5 6 4 4 5 4 6 8 5 3 5 5 4 4 3 5 7 7 7 7 6 4 3 2 1 1 2 4 5 6 6 8 11 13 16 18 18 20 21 21 22 23 23 24 24 24 24 24 26 29 31 31 30 30 29 29 28 27 27 26 26 26 26 25 24 24 25 26 27 27 27 27 27 28 27
3 4 4 4 3 3 4 4 2 1 2 1 1 2 4 5 3 4 8 8 5 4 4 5 5 4 4 7 8 7 5 5 4 3 3 1 1 2 4 6 8 9 11 13 15 18 18 17 18 19 21 22 22 22 23 23 22 23 25 27 30 30 30 30 30 29 29 28 27 27 27 27 27 26 26 25 23 24 25 25 25 25 25 26 26 26
1 1 1 2 2 1 1 0 0 1 1 2 3 3 4 5 3 3 6 7 5 4 4 5 6 6 5 6 7 6 5 5 5 4 3 3 2 1 2 6 10 12 13 15 17 18 17 16 16 17 20 23 23 23 23 23 21 21 24 27 28 29 29 29 29 29 28 28 27 27 27 27 27 26 26 25 24 24 24 24 24 24 24 24 25 25
2 1 2 2 4 3 2 1 1 3 3 4 4 4 5 5 3 3 5 5 5 5 5 4 5 6 5 5 7 7 5 5 5 4 4 4 3 2 1 2 5 8 10 12 14 15 16 16 15 16 19 22 24 24 25 24 23 22 24 25 27 28 28 28 28 28 28 28 28 27 26 27 28 27 26 26 24 24 24 24 24 24 23 23 24 24
1 2 2 2 3 3 1 1 2 3 4 4 3 2 4 5 5 5 5 6 7 7 6 6 6 5 5 5 6 8 7 5 5 4 3 3 3 2 2 3 5 7 9 12 13 14 15 14 15 16 18 20 23 25 26 26 27 26 26 27 28 28 29 28 28 29 30 29 29 28 27 26 26 27 27 27 26 25 25 25 25 25 26 26 26 26
2 3 3 3 4 3 1 2 4 3 3 3 2 2 3 5 7 7 7 7 8 8 8 8 8 7 6 5 5 7 7 5 4 4 4 3 3 4 6 9 11 12 14 15 16 16 15 15 15 16 17 19 21 23 25 27 28 29 29 29 30 30 30 29 29 29 30 30 29 29 28 27 26 25 25 27 27 27 27 26 27 28 29 29 29 29
3 4 2 3 4 3 3 7 8 5 1 2 2 4 4 4 7 8 7 6 7 7 8 9 9 8 8 7 6 6 6 5 5 5 4 4 5 6 8 9 10 11 13 14 15 15 16 16 16 17 18 19 20 21 23 25 27 28 29 30 31 31 31 30 30 29 29 28 28 28 28 28 27 26 24 24 25 27 28 28 27 27 29 30 30 29
4 5 5 5 4 4 6 10 9 3 2 4 5 6 4 3 6 7 6 5 5 5 5 7 8 7 7 8 9 8 6 5 6 6 4 4 5 6 7 8 8 9 11 12 13 14 16 17 18 20 22 23 23 23 23 24 25 26 27 28 30 31 31 29 28 28 28 27 27 28 28 28 28 27 26 24 23 23 25 27 28 28 28 28 28 28
Wind_Direction
88 109 166 186 195 191 186 177 155 154 142 137 125 111 147 158 220 259 273 305 92 139 250 231 235 256 259 267 270 277 292 273 257 255 253 253 253 250 241 234 233 236 248 258 258 252 244 238 232 226 222 218 217 217 217 216 215 216 215 214 213 212 211 210 209 209 211 212 213 215 215 215 214 214 215 215 216 217 218 218 221 222 219 216 213 208
67 134 208 218 206 189 175 165 124 104 91 96 121 115 111 157 207 266 251 305 3 137 271 320 284 267 258 263 267 269 280 269 250 245 250 251 254 256 245 234 232 244 263 268 258 248 240 237 229 221 217 214 214 215 215 216 217 216 215 215 214 213 212 212 213 213 215 216 216 217 217 216 215 214 215 215 215 215 216 216 217 217 214 212 211 208
49 188 230 228 195 136 109 129 112 99 90 82 108 120 131 192 241 305 297 314 11 106 273 359 335 277 264 256 260 255 249 254 249 237 244 251 256 260 252 237 236 254 270 268 258 246 235 228 219 214 213 213 215 216 216 218 218 217 216 217 216 216 215 215 216 217 218 220 220 221 221 219 217 216 216 217 217 216 215 215 214 213 213 213 215 213
121 242 240 209 143 108 89 107 108 93 79 88 109 126 186 233 167 260 291 314 3 55 275 340 318 280 282 279 265 257 248 261 269 254 245 242 243 254 258 236 224 238 253 260 262 250 230 216 208 208 210 211 212 214 215 216 217 218 218 218 217 218 218 218 218 218 219 220 219 221 223 223 219 219 218 218 219 219 218 218 217 217 216 217 218 216
199 253 217 112 101 111 109 102 118 121 69 26 133 140 179 200 162 189 281 326 359 9 9 2 325 287 307 323 285 285 300 281 286 288 264 250 243 256 278 257 221 228 234 241 253 248 213 204 204 206 207 207 208 212 215 217 218 220 220 220 219 219 220 220 219 218 218 218 218 218 220 222 220 220 218 217 219 219 220 222 223 223 221 220 221 219
230 262 138 111 75 84 112 125 154 147 121 313 219 171 171 163 152 158 10 34 30 347 334 25 354 292 312 319 281 293 317 290 311 329 283 266 258 260 275 261 235 238 239 238 247 237 209 207 206 205 206 206 209 215 218 220 221 222 223 222 220 221 221 222 222 220 219 219 219 218 217 214 213 216 217 217 219 219 220 222 226 225 222 222 224 223
229 350 87 123 108 84 99 138 194 142 115 240 230 167 148 128 119 121 79 62 76 256 293 53 104 266 303 293 262 274 286 281 300 311 282 275 286 277 263 259 245 245 255 257 242 213 202 203 200 203 208 209 214 219 220 221 223 224 225 224 223 223 223 223 224 222 221 220 220 220 220 218 215 216 220 221 222 224 224 224 224 222 220 221 222 222
172 78 69 93 92 91 109 160 204 135 116 224 225 132 131 120 122 126 101 95 227 251 318 18 124 238 293 267 256 276 287 289 290 277 265 267 284 292 279 274 266 245 237 238 223 207 206 201 200 207 211 215 220 222 221 222 225 226 227 227 226 225 225 226 226 225 224 222 221 222 222 222 221 221 224 226 226 228 228 225 222 220 219 219 219 220
158 144 158 122 90 114 173 214 200 123 104 238 195 127 131 125 128 118 98 98 359 7 315 317 123 208 271 270 293 340 282 278 274 260 261 275 292 291 282 275 274 258 228 215 208 209 209 204 209 215 218 222 224 225 226 227 229 229 229 229 228 228 227 227 228 228 228 226 225 224 223 224 225 226 229 232 231 230 228 225 223 221 220 220 217 218
98 182 189 138 122 181 200 246 204 132 103 190 140 100 75 74 83 78 93 107 37 7 261 241 174 200 269 277 310 13 222 254 266 268 271 283 284 274 272 277 285 275 225 215 218 228 216 211 217 221 225 229 229 229 231 232 232 230 230 229 229 230 230 230 230 229 230 229 227 226 225 225 227 229 231 235 236 232 228 226 224 222 222 221 216 214
323 266 188 117 146 186 155 100 162 149 132 132 101 66 45 31 38 45 60 79 57 291 258 230 189 174 291 277 255 218 210 226 258 288 288 290 295 283 283 300 297 247 202 199 208 263 243 224 224 227 229 233 233 233 233 233 233 232 231 231 231 232 232 231 230 230 230 230 228 228 227 228 229 228 229 231 233 231 229 227 225 224 223 223 218 214
359 37 318 298 167 136 100 69 31 14 80 101 85 79 63 350 10 20 1 43 91 255 266 269 243 132 246 259 253 248 251 241 236 255 267 282 298 291 286 68 255 237 220 182 148 134 263 225 219 229 231 232 233 234 233 233 233 232 232 232 231 232 231 231 230 230 230 230 229 230 230 230 230 229 227 228 228 228 227 227 226 223 221 222 219 215
25 52 292 315 253 140 105 78 31 0 26 78 95 101 96 338 8 353 311 18 225 247 272 302 298 202 237 249 257 263 265 254 228 227 236 232 256 271 205 157 212 241 255 239 153 156 242 229 221 227 228 226 228 233 235 235 233 233 232 232 232 232 232 231 230 230 230 230 230 231 232 232 232 229 228 228 229 229 228 227 226 221 219 219 218 215
300 308 310 17 292 191 138 133 132 263 146 133 142 133 134 134 124 250 268 282 258 259 292 313 270 246 274 263 244 250 259 256 238 243 245 220 229 270 232 178 205 242 252 263 258 240 245 243 236 233 230 226 228 234 236 236 235 234 234 233 233 234 233 231 231 231 231 231 233 233 234 234 232 230 229 229 230 230 229 228 227 225 222 219 218 217
182 275 226 171 225 188 171 179 157 148 156 175 159 135 151 161 160 203 215 212 244 276 297 308 278 200 213 258 238 237 261 276 264 257 262 253 255 304 323 178 185 226 246 257 261 255 253 252 247 243 241 233 230 233 235 237 237 236 236 236 235 235 233 232 231 231 232 233 234 234 235 235 233 232 230 230 231 232 231 230 229 230 228 224 221 219
160 249 253 261 233 162 171 210 128 111 110 232 126 106 175 189 145 139 188 178 178 310 290 255 238 212 209 277 273 260 282 292 286 286 300 285 269 114 130 197 198 224 236 240 247 251 254 253 252 249 247 242 236 231 230 235 238 238 239 240 239 239 237 235 234 233 234 236 236 235 235 235 234 233 231 232 233 233 233 232 231 232 233 231 225 221
150 267 289 344 355 159 163 181 132 132 180 174 142 181 217 181 117 110 234 101 89 254 268 217 250 284 327 292 289 306 290 286 301 305 292 275 248 167 188 211 219 231 231 233 233 235 246 248 247 246 246 245 241 234 230 233 238 242 244 243 243 242 239 237 237 236 237 236 236 236 236 236 235 233 233 233 234 234 234 234 234 235 237 236 230 225
157 223 302 57 170 270 194 134 61 37 134 129 178 214 195 113 84 106 192 353 42 247 271 252 245 280 317 276 308 3 222 255 283 281 264 266 265 251 231 202 213 229 232 246 245 241 250 247 245 244 243 244 244 242 239 237 241 245 247 247 247 245 242 241 240 239 239 238 237 238 237 237 237 236 236 236 235 236 235 235 234 233 235 236 234 228
147 158 309 28 174 296 357 108 49 354 94 133 185 186 118 130 189 108 159 193 154 232 276 291 272 262 212 229 294 324 201 227 255 257 256 264 267 275 269 214 226 239 237 249 248 242 244 239 240 242 242 245 247 248 247 243 241 244 247 249 250 251 251 249 246 244 241 240 239 240 240 239 239 239 239 238 236 236 235 234 232 230 232 237 238 233
149 164 257 314 239 313 15 136 197 212 59 65 91 116 98 142 175 164 161 166 168 197 251 302 312 269 227 212 207 222 222 219 237 253 259 261 262 272 275 229 229 237 230 231 231 231 233 231 236 239 245 256 258 256 253 245 244 246 248 250 251 253 253 250 248 246 244 243 242 242 242 241 241 240 240 240 237 236 236 236 233 232 234 237 239 236
137 173 210 305 342 228 197 213 189 171 158 151 161 177 186 116 115 159 170 125 139 164 194 272 289 263 249 209 187 210 228 221 224 235 245 257 262 265 257 225 218 229 231 228 223 224 231 234 241 250 265 271 267 265 257 247 250 254 251 251 251 252 252 251 249 247 246 246 244 244 243 242 242 242 241 240 238 237 237 237 235 235 236 236 236 235
156 168 164 152 271 204 224 248 192 185 183 172 184 197 188 162 132 158 237 239 124 160 176 183 261 267 250 201 192 208 226 231 231 225 240 266 263 257 260 244 228 234 239 239 234 234 244 248 261 282 280 276 273 273 267 255 255 260 260 258 254 253 254 253 252 250 249 249 247 246 246 245 245 243 242 240 239 238 238 237 236 235 234 234 234 236
119 110 127 166 221 214 238 264 212 209 213 168 204 207 179 167 146 153 206 234 164 211 175 131 264 274 246 192 198 219 236 257 255 213 221 277 276 262 274 273 248 241 250 259 256 257 268 277 295 289 277 276 279 280 274 264 262 266 270 266 258 258 260 258 255 254 253 251 250 250 248 247 246 244 242 241 239 238 237 237 237 235 233 233 234 237
98 112 127 230 305 310 304 315 3 97 189 210 241 185 153 179 158 150 182 181 167 207 166 116 253 263 270 246 229 251 266 281 264 207 187 290 327 317 301 308 313 291 299 310 308 309 310 312 302 279 274 279 284 282 275 269 270 274 274 270 265 267 268 264 259 257 254 253 253 253 250 248 246 244 243 241 240 239 238 238 237 236 235 234 236 238
189 170 131 111 332 332 336 322 297 254 196 204 222 182 169 169 138 122 130 119 207 221 169 167 241 243 273 299 301 331 336 319 255 251 186 113 5 342 340 347 343 340 338 327 324 328 321 311 288 278 286 296 294 289 284 283 284 283 281 278 275 276 276 271 265 260 257 256 255 254 251 249 247 245 244 242 242 241 240 239 238 237 236 236 238 242
183 182 154 160 191 209 212 220 221 198 169 194 215 193 186 176 163 167 158 156 228 224 162 192 240 229 272 322 335 344 345 312 278 291 289 271 320 323 333 322 298 305 312 301 306 312 303 298 297 302 309 311 309 307 303 302 299 295 291 288 284 282 280 277 271 265 261 258 256 254 253 250 248 246 245 244 244 243 241 240 239 239 239 238 239 242
143 186 193 195 204 208 212 214 161 131 151 203 212 191 188 192 185 179 166 192 214 189 162 223 239 241 256 277 290 288 288 271 272 271 257 264 267 258 251 256 274 294 296 297 313 321 320 320 318 320 324 327 331 330 323 316 310 304 299 297 294 289 284 280 274 268 263 258 256 256 255 253 251 249 248 247 247 246 243 241 240 239 240 241 240 239
109 207 212 208 220 224 220 208 157 150 175 200 202 189 189 196 188 185 204 215 199 144 229 237 221 237 255 247 240 252 245 242 260 251 244 268 269 262 276 310 334 336 330 336 347 343 339 336 328 331 339 346 350 347 341 334 325 317 308 304 303 297 290 284 276 269 264 259 256 257 258 257 255 252 251 250 249 248 245 242 241 240 240 241 240 239
131 213 214 200 225 238 225 165 165 178 188 199 200 193 192 193 188 195 214 220 196 175 235 241 208 216 247 245 235 240 229 223 238 231 230 262 273 282 311 339 341 337 342 352 353 349 350 344 335 339 345 352 357 356 354 349 342 335 324 318 315 308 300 290 279 271 265 260 258 262 263 261 258 255 253 251 250 249 247 244 242 241 240 241 241 240
160 216 212 185 218 242 229 176 181 192 193 202 207 200 194 194 195 201 213 219 209 204 231 245 238 236 245 242 235 234 219 217 224 206 216 245 262 287 331 346 334 334 348 357 352 351 356 347 342 348 351 355 357 355 354 351 347 342 335 330 326 321 314 300 284 275 267 263 264 268 267 263 260 257 254 252 250 249 248 245 243 241 240 241 241 241
202 220 197 158 197 248 237 202 190 196 197 205 216 214 206 203 204 208 214 216 210 221 238 248 258 260 250 210 220 221 186 187 184 186 224 244 260 314 34 356 333 353 1 3 1 356 355 349 348 354 351 350 351 350 350 349 346 344 340 337 333 328 323 308 291 281 272 269 272 273 270 265 262 259 256 254 253 251 249 246 243 242 241 241 241 241
191 218 110 128 177 242 237 202 182 188 208 223 231 227 215 210 211 209 211 207 198 210 230 239 252 258 239 187 207 181 147 174 196 214 236 261 38 100 111 104 33 30 13 4 2 352 349 346 342 343 339 338 343 345 348 349 347 345 343 339 334 331 324 311 298 287 279 278 279 276 273 269 265 262 259 257 255 252 250 247 244 242 241 240 240 240
175 183 161 155 195 240 237 173 149 149 182 239 238 226 213 211 212 204 214 221 208 201 209 219 237 246 227 196 214 184 165 193 209 228 249 79 94 109 112 103 70 41 8 358 350 332 332 331 326 328 330 335 342 344 347 350 347 343 341 339 337 333 326 315 304 294 289 288 285 281 277 273 268 264 262 261 258 255 251 247 244 243 242 241 240 239
180 189 190 173 201 232 211 130 121 157 208 230 227 204 200 204 200 197 216 223 214 209 216 227 246 248 214 189 213 197 176 190 172 150 147 107 114 112 102 100 81 36 348 333 315 304 311 317 321 327 333 340 346 347 350 352 347 340 338 338 337 335 330 320 310 302 298 296 293 289 285 278 271 268 266 264 261 256 252 248 246 245 243 242 241 238
183 192 195 182 203 219 154 122 165 214 223 231 212 175 193 202 196 200 218 223 212 213 227 238 251 249 215 190 209 178 134 126 114 98 72 80 109 116 110 104 59 16 333 319 303 300 313 320 325 332 339 345 349 352 352 350 346 341 337 336 336 332 328 321 313 307 303 300 299 296 291 285 277 273 270 266 262 257 253 250 248 247 245 243 241 239
182 185 184 181 189 176 131 171 213 234 254 278 267 202 184 176 176 196 229 236 217 208 217 229 240 243 225 193 190 148 130 120 94 75 55 52 82 111 119 119 90 304 296 312 314 314 326 332 332 335 339 345 351 355 353 349 347 343 339 340 339 333 327 321 314 310 306 303 302 301 297 291 283 277 273 269 262 258 254 252 250 248 247 245 242 241
172 177 184 199 201 200 205 213 228 287 310 266 246 222 172 155 164 184 226 244 221 202 210 222 234 241 232 189 153 139 136 118 84 61 261 304 11 50 110 120 104 284 295 322 334 337 343 346 347 349 351 354 359 0 356 353 352 348 344 344 343 338 332 324 316 313 311 307 306 306 303 297 289 282 277 271 263 259 257 254 253 251 249 245 243 242
165 173 191 207 205 198 215 228 232 243 248 244 234 193 173 181 175 175 211 247 229 202 207 217 228 234 219 166 144 141 139 129 139 208 226 217 215 308 346 341 353 3 0 2 0 0 1 359 359 3 3 3 5 3 0 358 356 352 348 346 344 339 335 330 325 322 318 313 311 309 306 301 294 287 280 273 267 263 261 259 256 254 251 247 245 244
169 81 158 209 211 192 210 226 224 224 238 242 230 196 186 179 150 137 202 246 232 193 190 201 221 223 192 158 152 146 151 178 196 198 190 182 190 185 208 328 354 13 16 16 9 358 355 357 1 5 7 7 6 5 4 2 358 356 351 347 344 342 339 336 332 328 322 317 314 311 308 304 298 290 283 277 272 268 266 263 261 259 255 250 248 247
206 128 163 211 218 207 213 228 231 232 245 242 231 232 210 155 128 134 213 243 210 148 152 175 197 200 165 155 153 150 173 201 186 166 167 171 179 171 162 8 357 360 1 8 7 357 353 357 1 2 3 4 4 5 6 2 360 358 353 348 346 344 341 336 332 327 322 318 316 313 311 309 303 295 288 282 278 275 271 268 265 261 257 253 250 249
200 192 195 212 220 218 220 230 240 245 238 220 216 218 160 124 136 179 220 229 151 145 153 149 155 161 153 155 152 151 177 176 133 135 147 133 120 117 37 9 1 0 360 0 1 356 353 355 358 359 1 4 4 5 5 1 358 356 351 347 345 341 337 334 331 328 324 321 318 315 314 313 308 302 295 289 285 280 275 271 267 263 259 256 252 249
191 195 199 207 217 222 222 226 239 257 235 179 159 169 149 145 188 209 212 95 125 148 149 127 136 154 145 122 117 131 136 118 110 114 109 98 101 54 353 356 355 356 360 0 3 1 354 353 357 359 1 5 4 3 2 359 354 350 346 343 340 338 336 335 334 332 327 323 320 318 316 315 312 307 301 296 290 283 278 274 269 265 260 256 253 250
181 184 195 198 200 207 218 220 224 242 217 146 129 143 195 196 199 167 120 61 95 132 136 133 145 160 137 109 103 115 117 107 99 99 92 73 63 8 342 343 338 338 348 354 0 3 359 357 357 356 357 360 1 0 360 355 348 344 341 339 339 339 338 337 335 332 328 324 321 319 318 316 313 309 304 299 293 286 281 277 271 265 260 255 251 249
183 185 195 197 191 190 206 216 210 214 212 159 146 171 196 190 178 146 131 121 122 136 140 136 140 164 149 128 122 119 113 111 114 110 98 38 346 323 323 336 340 341 349 354 359 3 4 360 355 352 352 354 357 357 356 353 347 341 338 339 341 341 340 338 336 332 328 325 323 321 319 317 313 310 305 301 295 286 279 275 270 264 258 253 249 246
207 194 179 173 184 185 193 216 221 205 241 246 135 145 141 123 111 131 129 126 139 159 149 138 144 154 144 130 128 126 125 132 144 142 132 148 260 298 320 340 351 354 356 358 2 5 4 360 353 348 344 345 350 351 349 349 344 336 334 340 343 342 340 338 335 332 328 326 324 323 321 318 314 311 307 302 295 285 278 272 265 259 254 250 245 243
254 218 111 118 155 110 79 114 21 48 70 72 63 73 99 98 84 103 114 114 126 138 129 135 144 144 145 141 129 121 128 138 140 139 141 154 175 274 334 346 355 359 360 1 1 1 1 358 353 346 338 338 344 346 344 344 341 333 333 340 344 343 340 336 332 329 326 324 323 324 323 320 317 315 311 305 297 287 279 271 261 255 251 246 242 241
284 228 75 116 170 173 155 148 66 46 68 86 79 74 80 79 68 90 108 112 112 109 107 113 119 118 124 126 119 118 124 123 119 121 126 128 132 138 127 359 355 356 359 1 360 359 359 356 351 345 336 333 339 343 341 341 342 339 337 341 345 345 341 336 332 327 323 322 323 323 324 323 320 318 314 308 301 291 283 273 261 253 247 242 239 238
225 146 107 141 170 155 145 145 82 40 28 38 49 81 101 98 87 79 86 97 98 93 85 78 85 96 93 92 108 117 112 97 95 105 107 102 102 97 55 13 360 357 1 4 4 4 1 355 348 342 335 332 337 341 341 342 344 344 344 344 347 347 343 339 335 329 324 323 323 323 324 324 321 319 315 310 303 294 285 276 266 255 247 242 239 237
135 155 158 140 126 94 56 142 119 71 16 359 26 63 89 107 108 96 88 93 97 97 92 78 69 74 78 74 92 110 106 94 81 81 81 74 56 30 9 1 357 357 359 359 359 360 358 352 345 339 333 333 337 341 342 343 345 347 348 347 348 348 345 341 336 329 325 324 322 321 323 323 321 318 314 310 305 298 290 281 273 265 260 256 249 243
140 168 155 118 143 175 192 175 159 136 151 208 162 115 100 109 115 106 93 90 95 101 106 98 83 70 66 59 59 84 93 77 51 46 52 53 36 14 2 356 350 350 352 352 351 352 351 348 344 338 334 335 339 342 343 342 343 347 349 349 348 348 345 341 335 327 323 322 321 319 320 319 317 314 310 305 302 299 294 289 281 273 271 270 265 258
172 185 176 157 179 213 181 168 165 135 108 144 136 120 107 102 108 102 89 90 96 92 101 108 102 88 73 55 47 57 68 55 38 36 35 25 12 1 353 347 340 340 343 346 349 349 347 346 344 340 338 338 340 342 342 341 343 348 349 347 345 344 342 339 333 324 320 319 318 317 317 314 311 309 305 299 294 291 289 289 287 281 275 273 272 269